カタログに戻る

CZ-2D DEB

運用中SSO
NORAD 43403·DEBRIS·🇨🇳 China

打ち上げ Sep 29, 2012 から Jiuquan Satellite Launch Center

Loading…

次のパス (今後24時間)

TLE

最新Source: Space-Track

元期: Sep 14, 2026, 11:29 UTC

1 43403U 12052C   26257.47902999  .00001009  00000-0  25528-3 0  9990
2 43403  98.0200 343.3080 0188668  25.6272 335.4123 14.42839246669170

AllMySatでCZ-2D DEBをリアルタイム追跡

Download on the App Store